Flag for U.S.A. Weather past 2 weeks in Post Falls, Idaho, U.S.A.

Now
66 °F

Sunny.


Feels Like: 66 °F
Forecast: 36 / 66 °F
Wind: 6 mph from Northwest

Location: Coeur d'Alene Weather Reporting System

Current Time: Apr 18, 2015 at 5:27:14 PM

Latest Report: Apr 18, 2015 at 4:55 PM


Visibility: 10 mi

Pressure: 30.16 "Hg

Humidity: 21%

Dew point: 25 °F

Location of Post FallsLocation

Historic Weather in Post Falls — Graph

°F

Post Falls temperature yesterday

Maximum temperature yesterday: 66 °F (at 1:55 PM)
Minimum temperature yesterday: 34 °F (at 2:55 AM)
Average temperature yesterday: 51 °F

Past Weeks' High & Low Weather Summary

 TemperatureHumidityPressure
High68 °F (Apr 18, 4:15 PM)100% (Apr 4, 8:35 PM)30.40 "Hg (Apr 4, 8:35 PM)
Low27 °F (Apr 5, 6:15 AM)12% (Apr 8, 7:35 AM)29.64 "Hg (Apr 5, 6:35 PM)
Average44 °F62%30.01 "Hg
* Reported Apr 3 4:15 PM — Apr 18 4:35 PM, Post Falls, Weather by CustomWeather, © 2015

Note: Actual official high and low records may vary slightly from our data, if they occured in-between our weather recording intervals... More about our weather records

Advertising

Post Falls weather history for previous 24 hours

 ConditionsComfort  
Time TempWeatherWind HumidityBarometerVisibility
4:35 PM
Sat, Apr 18
66 °FSunny.16 mph18%30.16 "Hg10 mi
4:15 PM68 °FSunny.6 mph21%30.17 "Hg10 mi
3:55 PM66 °FSunny.13 mph22%30.17 "Hg10 mi
3:35 PM66 °FSunny.10 mph22%30.18 "Hg10 mi
3:15 PM66 °FSunny.8 mph21%30.19 "Hg10 mi
2:55 PM66 °FSunny.10 mph21%30.20 "Hg10 mi
2:35 PM66 °FSunny.9 mph21%30.20 "Hg10 mi
2:15 PM64 °FSunny.No wind22%30.20 "Hg10 mi
1:55 PM64 °FSunny.3 mph22%30.21 "Hg10 mi
1:35 PM64 °FSunny.No wind22%30.22 "Hg10 mi
1:15 PM64 °FSunny.8 mph24%30.22 "Hg10 mi
12:55 PM63 °FSunny.5 mph24%30.22 "Hg10 mi
12:35 PM63 °FSunny.3 mph24%30.23 "Hg10 mi
12:15 PM63 °FSunny.6 mph25%30.24 "Hg10 mi
11:55 AM63 °FSunny.8 mph25%30.24 "Hg10 mi
11:35 AM61 °FSunny.5 mph27%30.24 "Hg8 mi
11:15 AM61 °FSunny.6 mph27%30.25 "Hg10 mi
10:55 AM59 °FSunny.3 mph31%30.25 "Hg10 mi
10:35 AM57 °FSunny.No wind36%30.25 "Hg10 mi
10:15 AM57 °FSunny.3 mph36%30.25 "Hg10 mi
9:55 AM55 °FSunny.3 mph41%30.25 "Hg10 mi
9:35 AM55 °FSunny.No wind44%30.25 "Hg10 mi
9:15 AM54 °FSunny.No wind51%30.25 "Hg10 mi
8:55 AM54 °FSunny.No wind72%30.25 "Hg10 mi
8:35 AM52 °FSunny.No wind58%30.25 "Hg10 mi
8:15 AM46 °FSunny.No wind76%30.25 "Hg10 mi
7:55 AM45 °FSunny.No wind81%30.24 "Hg10 mi
7:35 AM43 °FSunny.No wind81%30.24 "Hg10 mi
7:15 AM41 °FSunny.5 mph87%30.23 "Hg10 mi
6:55 AM39 °FSunny.3 mph87%30.23 "Hg10 mi
6:35 AM39 °FClear.5 mph87%30.22 "Hg10 mi
6:15 AM37 °FClear.5 mph93%30.22 "Hg10 mi
5:55 AM39 °FClear.7 mph93%30.21 "Hg10 mi
5:35 AM37 °FClear.No wind87%30.20 "Hg10 mi
5:15 AM37 °FClear.No wind87%30.19 "Hg10 mi
4:55 AM39 °FClear.No wind81%30.19 "Hg10 mi
4:35 AM39 °FClear.5 mph87%30.17 "Hg10 mi
4:15 AM43 °FClear.No wind81%30.17 "Hg10 mi
3:55 AM41 °FClear.6 mph81%30.17 "Hg10 mi
3:35 AM43 °FClear.6 mph81%30.16 "Hg10 mi
3:15 AM43 °FClear.7 mph76%30.16 "Hg10 mi
2:55 AM43 °FClear.No wind66%30.15 "Hg10 mi
2:35 AM46 °FClear.No wind62%30.14 "Hg10 mi
2:15 AM50 °FClear.7 mph62%30.14 "Hg10 mi
1:55 AM46 °FClear.7 mph66%30.14 "Hg10 mi
1:35 AM46 °FClear.No wind66%30.13 "Hg10 mi
1:15 AM46 °FClear.7 mph66%30.13 "Hg10 mi
12:55 AM50 °FClear.6 mph62%30.12 "Hg10 mi
12:35 AM48 °FClear.8 mph62%30.11 "Hg10 mi
12:15 AM48 °FClear.9 mph62%30.10 "Hg10 mi
11:55 PM
Fri, Apr 17
48 °FClear.10 mph66%30.10 "Hg10 mi
11:35 PM48 °FClear.9 mph62%30.10 "Hg10 mi
11:15 PM48 °FClear.8 mph66%30.09 "Hg10 mi
10:55 PM52 °FClear.8 mph54%30.09 "Hg10 mi
10:15 PM48 °FClear.8 mph58%30.08 "Hg10 mi
9:55 PM54 °FClear.No wind51%30.09 "Hg10 mi
9:35 PM52 °FClear.5 mph54%30.08 "Hg10 mi
9:15 PM54 °FClear.3 mph51%30.08 "Hg10 mi
8:55 PM55 °FClear.No wind47%30.08 "Hg10 mi
8:15 PM54 °FSunny.8 mph51%30.06 "Hg10 mi
7:55 PM57 °FSunny.5 mph44%30.06 "Hg10 mi
7:35 PM57 °FSunny.7 mph48%30.05 "Hg10 mi
7:15 PM61 °FSunny.9 mph42%30.05 "Hg10 mi
6:55 PM63 °FSunny.9 mph39%30.05 "Hg10 mi
6:35 PM64 °FSunny.10 mph37%30.05 "Hg10 mi
6:15 PM66 °FSunny.12 mph32%30.06 "Hg10 mi
5:55 PM66 °FSunny.10 mph35%30.06 "Hg10 mi
5:35 PM66 °FSunny.14 mph35%30.06 "Hg10 mi
5:15 PM66 °FSunny.8 mph32%30.08 "Hg10 mi
Weather by CustomWeather, © 2015

See weather overviewHow to use our weather pages